Time,TemperatureF,DewpointF,PressureIn,WindDirection,WindDirectionDegrees,WindSpeedMPH,WindSpeedGustMPH,Humidity,HourlyPrecipIn,Conditions,Clouds,dailyrainin,SoftwareType,DateUTC
2013-07-21 00:07:00,66.7,61.0,29.80,SSW,195,2.0,3.0,83,0.00,,,0.00,weatherlink.com 1.10,2013-07-21 07:07:00,
2013-07-21 00:22:00,66.6,62.0,29.80,SSW,213,1.0,3.0,84,0.00,,,0.00,weatherlink.com 1.10,2013-07-21 07:22:00,
2013-07-21 00:37:00,66.5,62.0,29.80,SW,219,0.0,4.0,84,0.00,,,0.00,weatherlink.com 1.10,2013-07-21 07:37:00,
2013-07-21 00:52:00,66.5,62.0,29.80,SSE,165,0.0,3.0,84,0.00,,,0.00,weatherlink.com 1.10,2013-07-21 07:52:00,
2013-07-21 01:07:00,66.5,62.0,29.81,SSE,161,2.0,3.0,84,0.00,,,0.00,weatherlink.com 1.10,2013-07-21 08:07:00,
2013-07-21 01:22:00,66.5,62.0,29.80,SW,228,1.0,5.0,84,0.00,,,0.00,weatherlink.com 1.10,2013-07-21 08:22:00,
2013-07-21 01:37:00,66.5,62.0,29.80,South,186,3.0,4.0,84,0.00,,,0.00,weatherlink.com 1.10,2013-07-21 08:37:00,
2013-07-21 01:52:00,66.6,62.0,29.80,SSE,155,0.0,4.0,84,0.00,,,0.00,weatherlink.com 1.10,2013-07-21 08:52:00,
2013-07-21 02:07:00,66.6,62.0,29.80,SW,218,3.0,3.0,84,0.00,,,0.00,weatherlink.com 1.10,2013-07-21 09:07:00,
2013-07-21 02:22:00,66.6,62.0,29.80,SSW,205,0.0,1.0,84,0.00,,,0.00,weatherlink.com 1.10,2013-07-21 09:22:00,
2013-07-21 02:37:00,66.4,62.0,29.80,SW,224,0.0,3.0,84,0.00,,,0.00,weatherlink.com 1.10,2013-07-21 09:37:00,
2013-07-21 02:52:00,66.4,62.0,29.80,SW,219,1.0,3.0,85,0.00,,,0.00,weatherlink.com 1.10,2013-07-21 09:52:00,
2013-07-21 03:07:00,66.5,62.0,29.79,SSW,201,1.0,3.0,85,0.00,,,0.00,weatherlink.com 1.10,2013-07-21 10:07:00,
2013-07-21 03:22:00,66.6,62.0,29.79,WSW,243,0.0,4.0,85,0.00,,,0.00,weatherlink.com 1.10,2013-07-21 10:22:00,
2013-07-21 03:37:00,66.7,62.0,29.78,WSW,250,0.0,0.0,85,0.00,,,0.00,weatherlink.com 1.10,2013-07-21 10:37:00,
2013-07-21 03:52:00,66.9,62.0,29.80,WSW,252,0.0,0.0,85,0.00,,,0.00,weatherlink.com 1.10,2013-07-21 10:52:00,
2013-07-21 04:07:00,67.0,62.0,29.79,WSW,252,0.0,0.0,84,0.00,,,0.00,weatherlink.com 1.10,2013-07-21 11:07:00,
2013-07-21 04:22:00,67.0,62.0,29.79,WSW,252,0.0,0.0,84,0.00,,,0.00,weatherlink.com 1.10,2013-07-21 11:22:00,
2013-07-21 04:37:00,67.0,62.0,29.78,WSW,252,0.0,0.0,84,0.00,,,0.00,weatherlink.com 1.10,2013-07-21 11:37:00,
2013-07-21 04:52:00,67.0,62.0,29.77,SW,217,2.0,4.0,84,0.00,,,0.00,weatherlink.com 1.10,2013-07-21 11:52:00,
2013-07-21 05:07:00,67.2,62.0,29.77,WSW,238,0.0,4.0,84,0.00,,,0.00,weatherlink.com 1.10,2013-07-21 12:07:00,
2013-07-21 05:22:00,67.3,62.0,29.76,SW,234,0.0,4.0,84,0.00,,,0.00,weatherlink.com 1.10,2013-07-21 12:22:00,
2013-07-21 05:37:00,67.3,62.0,29.77,WSW,255,1.0,3.0,84,0.00,,,0.00,weatherlink.com 1.10,2013-07-21 12:37:00,
2013-07-21 05:52:00,67.3,62.0,29.78,WSW,255,0.0,1.0,84,0.00,,,0.00,weatherlink.com 1.10,2013-07-21 12:52:00,
2013-07-21 06:07:00,67.3,62.0,29.78,WSW,255,0.0,1.0,84,0.00,,,0.00,weatherlink.com 1.10,2013-07-21 13:07:00,
2013-07-21 06:22:00,67.4,62.0,29.78,WSW,240,0.0,1.0,84,0.00,,,0.00,weatherlink.com 1.10,2013-07-21 13:22:00,
2013-07-21 06:37:00,67.5,63.0,29.79,WSW,254,0.0,1.0,84,0.00,,,0.00,weatherlink.com 1.10,2013-07-21 13:37:00,
2013-07-21 06:52:00,67.6,63.0,29.79,SSW,197,2.0,2.0,84,0.00,,,0.00,weatherlink.com 1.10,2013-07-21 13:52:00,
2013-07-21 07:07:00,67.7,63.0,29.79,SSW,213,0.0,2.0,84,0.00,,,0.00,weatherlink.com 1.10,2013-07-21 14:07:00,
2013-07-21 07:22:00,67.9,63.0,29.79,SW,228,0.0,2.0,84,0.00,,,0.00,weatherlink.com 1.10,2013-07-21 14:22:00,
2013-07-21 07:37:00,68.4,63.0,29.79,WSW,237,1.0,3.0,83,0.00,,,0.00,weatherlink.com 1.10,2013-07-21 14:37:00,
2013-07-21 07:52:00,69.3,63.0,29.80,SSE,153,0.0,2.0,81,0.00,,,0.00,weatherlink.com 1.10,2013-07-21 14:52:00,
2013-07-21 08:08:00,70.5,64.0,29.80,SW,224,1.0,4.0,80,0.00,,,0.00,weatherlink.com 1.10,2013-07-21 15:08:00,
2013-07-21 08:23:00,71.3,64.0,29.80,SE,125,2.0,5.0,78,0.00,,,0.00,weatherlink.com 1.10,2013-07-21 15:23:00,
2013-07-21 08:38:00,71.2,64.0,29.80,SSE,159,0.0,4.0,78,0.00,,,0.00,weatherlink.com 1.10,2013-07-21 15:38:00,
2013-07-21 08:53:00,71.8,64.0,29.81,SW,229,2.0,5.0,76,0.00,,,0.00,weatherlink.com 1.10,2013-07-21 15:53:00,
2013-07-21 09:08:00,71.5,64.0,29.82,South,191,4.0,5.0,77,0.00,,,0.00,weatherlink.com 1.10,2013-07-21 16:08:00,
2013-07-21 09:23:00,70.7,63.0,29.82,SSE,160,4.0,6.0,77,0.00,,,0.00,weatherlink.com 1.10,2013-07-21 16:23:00,
2013-07-21 09:38:00,70.4,64.0,29.83,SSE,167,1.0,5.0,79,0.00,,,0.00,weatherlink.com 1.10,2013-07-21 16:38:00,
2013-07-21 09:53:00,70.3,64.0,29.84,SSE,153,2.0,4.0,79,0.00,,,0.00,weatherlink.com 1.10,2013-07-21 16:53:00,
2013-07-21 10:08:00,70.3,64.0,29.84,SSW,210,1.0,5.0,79,0.00,,,0.00,weatherlink.com 1.10,2013-07-21 17:08:00,
2013-07-21 10:23:00,70.9,64.0,29.84,SW,224,3.0,4.0,79,0.00,,,0.00,weatherlink.com 1.10,2013-07-21 17:23:00,
2013-07-21 10:38:00,71.3,64.0,29.84,SE,134,4.0,7.0,78,0.00,,,0.00,weatherlink.com 1.10,2013-07-21 17:38:00,
2013-07-21 10:53:00,71.6,64.0,29.84,WSW,250,4.0,5.0,77,0.00,,,0.00,weatherlink.com 1.10,2013-07-21 17:53:00,
2013-07-21 11:08:00,71.4,64.0,29.85,SW,219,0.0,5.0,77,0.00,,,0.00,weatherlink.com 1.10,2013-07-21 18:08:00,
2013-07-21 11:23:00,70.7,64.0,29.85,SSW,209,2.0,6.0,78,0.00,,,0.00,weatherlink.com 1.10,2013-07-21 18:23:00,
2013-07-21 11:38:00,70.5,64.0,29.85,WSW,249,2.0,5.0,79,0.00,,,0.00,weatherlink.com 1.10,2013-07-21 18:38:00,
2013-07-21 11:53:00,70.3,64.0,29.86,SSE,161,3.0,5.0,79,0.00,,,0.00,weatherlink.com 1.10,2013-07-21 18:53:00,
2013-07-21 12:08:00,70.1,64.0,29.86,SW,233,0.0,6.0,80,0.00,,,0.00,weatherlink.com 1.10,2013-07-21 19:08:00,
2013-07-21 12:23:00,70.4,64.0,29.85,WSW,247,2.0,6.0,79,0.00,,,0.00,weatherlink.com 1.10,2013-07-21 19:23:00,
2013-07-21 12:38:00,70.5,64.0,29.85,South,189,2.0,8.0,79,0.00,,,0.00,weatherlink.com 1.10,2013-07-21 19:38:00,
2013-07-21 12:53:00,71.2,64.0,29.85,SW,236,5.0,7.0,77,0.00,,,0.00,weatherlink.com 1.10,2013-07-21 19:53:00,
2013-07-21 13:08:00,70.6,63.0,29.86,WSW,243,2.0,6.0,78,0.00,,,0.00,weatherlink.com 1.10,2013-07-21 20:08:00,
2013-07-21 13:23:00,70.9,64.0,29.86,West,259,1.0,6.0,78,0.00,,,0.00,weatherlink.com 1.10,2013-07-21 20:23:00,
2013-07-21 13:38:00,70.8,63.0,29.85,SW,226,3.0,6.0,77,0.00,,,0.00,weatherlink.com 1.10,2013-07-21 20:38:00,
2013-07-21 13:53:00,70.6,63.0,29.86,SSW,207,3.0,6.0,77,0.00,,,0.00,weatherlink.com 1.10,2013-07-21 20:53:00,
2013-07-21 14:08:00,71.0,63.0,29.86,West,273,1.0,6.0,77,0.00,,,0.00,weatherlink.com 1.10,2013-07-21 21:08:00,
2013-07-21 14:23:00,71.2,64.0,29.86,SSW,208,3.0,5.0,77,0.00,,,0.00,weatherlink.com 1.10,2013-07-21 21:23:00,
2013-07-21 14:38:00,71.2,63.0,29.86,SW,226,0.0,4.0,76,0.00,,,0.00,weatherlink.com 1.10,2013-07-21 21:38:00,
2013-07-21 14:53:00,71.1,63.0,29.85,SW,229,0.0,5.0,76,0.00,,,0.00,weatherlink.com 1.10,2013-07-21 21:53:00,
2013-07-21 15:08:00,71.0,63.0,29.86,SW,215,2.0,5.0,77,0.00,,,0.00,weatherlink.com 1.10,2013-07-21 22:08:00,
2013-07-21 15:23:00,70.5,63.0,29.86,SSE,155,3.0,5.0,77,0.00,,,0.00,weatherlink.com 1.10,2013-07-21 22:23:00,
2013-07-21 15:38:00,70.4,63.0,29.86,SSE,158,4.0,4.0,77,0.00,,,0.00,weatherlink.com 1.10,2013-07-21 22:38:00,
2013-07-21 15:53:00,70.1,63.0,29.86,SSW,203,2.0,5.0,78,0.00,,,0.00,weatherlink.com 1.10,2013-07-21 22:53:00,
2013-07-21 16:08:00,69.8,63.0,29.86,South,173,2.0,5.0,78,0.00,,,0.00,weatherlink.com 1.10,2013-07-21 23:08:00,
2013-07-21 16:23:00,69.6,62.0,29.86,SW,215,2.0,5.0,78,0.00,,,0.00,weatherlink.com 1.10,2013-07-21 23:23:00,
2013-07-21 16:38:00,69.5,63.0,29.85,South,179,0.0,5.0,79,0.00,,,0.00,weatherlink.com 1.10,2013-07-21 23:38:00,
2013-07-21 16:53:00,69.4,63.0,29.85,SW,228,2.0,4.0,79,0.00,,,0.00,weatherlink.com 1.10,2013-07-21 23:53:00,
2013-07-21 17:08:00,69.6,62.0,29.85,WSW,238,3.0,6.0,78,0.00,,,0.00,weatherlink.com 1.10,2013-07-22 00:08:00,
2013-07-21 17:23:00,69.6,62.0,29.85,WSW,242,2.0,5.0,78,0.00,,,0.00,weatherlink.com 1.10,2013-07-22 00:23:00,
2013-07-21 17:38:00,69.4,62.0,29.85,WSW,237,1.0,5.0,78,0.00,,,0.00,weatherlink.com 1.10,2013-07-22 00:38:00,
2013-07-21 17:53:00,69.5,62.0,29.85,SW,220,4.0,4.0,78,0.00,,,0.00,weatherlink.com 1.10,2013-07-22 00:53:00,
2013-07-21 18:08:00,69.4,62.0,29.85,SSE,158,3.0,5.0,78,0.00,,,0.00,weatherlink.com 1.10,2013-07-22 01:08:00,
2013-07-21 18:23:00,69.3,62.0,29.85,SW,236,0.0,3.0,78,0.00,,,0.00,weatherlink.com 1.10,2013-07-22 01:23:00,
2013-07-21 18:38:00,69.0,62.0,29.85,WSW,248,1.0,3.0,79,0.00,,,0.00,weatherlink.com 1.10,2013-07-22 01:38:00,
2013-07-21 18:53:00,68.7,62.0,29.85,WSW,248,0.0,2.0,79,0.00,,,0.00,weatherlink.com 1.10,2013-07-22 01:53:00,
2013-07-21 19:08:00,68.7,62.0,29.85,WSW,248,0.0,2.0,79,0.00,,,0.00,weatherlink.com 1.10,2013-07-22 02:08:00,
2013-07-21 19:23:00,68.7,62.0,29.86,WSW,237,0.0,2.0,79,0.00,,,0.00,weatherlink.com 1.10,2013-07-22 02:23:00,
2013-07-21 19:38:00,68.5,62.0,29.86,SSE,168,2.0,3.0,80,0.00,,,0.00,weatherlink.com 1.10,2013-07-22 02:38:00,
2013-07-21 19:53:00,68.3,62.0,29.85,WSW,248,1.0,2.0,80,0.00,,,0.00,weatherlink.com 1.10,2013-07-22 02:53:00,
2013-07-21 20:08:00,68.2,62.0,29.86,SW,222,0.0,1.0,80,0.00,,,0.00,weatherlink.com 1.10,2013-07-22 03:08:00,
2013-07-21 20:23:00,68.1,62.0,29.86,SW,222,0.0,0.0,80,0.00,,,0.00,weatherlink.com 1.10,2013-07-22 03:23:00,
2013-07-21 20:38:00,68.0,62.0,29.86,SW,231,0.0,0.0,80,0.00,,,0.00,weatherlink.com 1.10,2013-07-22 03:38:00,
2013-07-21 20:53:00,68.1,62.0,29.86,SW,222,0.0,2.0,80,0.00,,,0.00,weatherlink.com 1.10,2013-07-22 03:53:00,
2013-07-21 21:08:00,68.1,62.0,29.87,SSW,206,0.0,2.0,80,0.00,,,0.00,weatherlink.com 1.10,2013-07-22 04:08:00,
2013-07-21 21:23:00,68.0,62.0,29.87,SSW,206,0.0,0.0,80,0.00,,,0.00,weatherlink.com 1.10,2013-07-22 04:23:00,
2013-07-21 21:38:00,68.0,62.0,29.88,SSW,206,0.0,1.0,81,0.00,,,0.00,weatherlink.com 1.10,2013-07-22 04:38:00,
2013-07-21 21:53:00,67.9,62.0,29.88,SSW,206,0.0,1.0,81,0.00,,,0.00,weatherlink.com 1.10,2013-07-22 04:53:00,
2013-07-21 22:08:00,67.9,62.0,29.88,SSW,208,0.0,1.0,81,0.00,,,0.00,weatherlink.com 1.10,2013-07-22 05:08:00,
2013-07-21 22:23:00,68.0,62.0,29.88,SW,216,1.0,1.0,81,0.00,,,0.00,weatherlink.com 1.10,2013-07-22 05:23:00,
2013-07-21 22:38:00,68.1,62.0,29.88,SW,234,0.0,1.0,81,0.00,,,0.00,weatherlink.com 1.10,2013-07-22 05:38:00,
2013-07-21 22:53:00,68.1,62.0,29.89,SW,234,0.0,1.0,81,0.00,,,0.00,weatherlink.com 1.10,2013-07-22 05:53:00,
2013-07-21 23:08:00,68.2,62.0,29.88,SW,234,0.0,0.0,81,0.00,,,0.00,weatherlink.com 1.10,2013-07-22 06:08:00,
2013-07-21 23:23:00,68.2,62.0,29.89,SW,231,0.0,2.0,81,0.00,,,0.00,weatherlink.com 1.10,2013-07-22 06:23:00,
2013-07-21 23:38:00,68.2,62.0,29.88,WSW,243,0.0,3.0,81,0.00,,,0.00,weatherlink.com 1.10,2013-07-22 06:38:00,
2013-07-21 23:53:00,68.2,62.0,29.88,SW,233,0.0,3.0,81,0.00,,,0.00,weatherlink.com 1.10,2013-07-22 06:53:00,